Location: Glencliff
(36.1226°N, 86.7183°W)
Time: 02:32:44
(UTC+00:00)

CZ-2C R/B - Pass Details

Date: 25 August 2019
Orbit: 705 x 907 km, 98.1° (Epoch: 17 October)

Event Time Altitude Azimuth Distance (km) Brightness Sun altitude
Exits shadow 01:18:36 14° 97° (E) 1,927 4.5 -11.0°
Maximum altitude 01:20:43 18° 66° (ENE) 1,707 4.4 -11.4°
Drops below altitude 10° 01:23:53 10° 24° (NNE) 2,203 5.4 -11.9°
Sets 01:26:49 0° 6° (N) 3,151 6.4 -12.5°
